Flag for Honduras Weather past 2 weeks in La Ceiba, Honduras

Now
88 °F

Scattered clouds.


Feels Like: 98 °F
Forecast: 73 / 88 °F
Wind: 7 mph from Northwest

Location: La Ceiba Airport

Current Time: Sep 18, 2014 at 12:07:35 PM

Latest Report: Sep 18, 2014 at 10:00 AM


Visibility: N/A

Pressure: 29.92 "Hg

Humidity: 66%

Dew point: 75 °F

Location of La CeibaLocation

Historic Weather in La Ceiba — Graph

°F

La Ceiba temperature yesterday

Maximum temperature yesterday: 90 °F (at 2:00 PM)
Minimum temperature yesterday: 73 °F (at 4:00 AM)
Average temperature yesterday: 81 °F

Past Weeks' High & Low Weather Summary

 TemperatureHumidityPressure
High90 °F (Sep 3, 12:00 PM)100% (Sep 7, 1:00 AM)29.98 "Hg (Sep 7, 1:00 AM)
Low70 °F (Sep 4, 5:00 AM)59% (Sep 4, 3:00 PM)29.74 "Hg (Sep 11, 3:00 PM)
Average80 °F83%29.87 "Hg
* Reported Sep 3 10:00 AM — Sep 18 10:00 AM, La Ceiba, Weather by CustomWeather, © 2014

Note: Actual official high and low records may vary slightly from our data, if they occured in-between our weather recording intervals... More about our weather records

Advertising

La Ceiba weather history for previous 24 hours

 ConditionsComfort  
Time TempWeatherWind HumidityBarometerVisibility
10:00 AM
Sep 18
88 °FScattered clouds.7 mph66%29.92 "HgN/A
9:00 AM88 °FPartly sunny.3 mph66%29.92 "HgN/A
8:00 AM84 °FPartly sunny.No wind70%29.92 "HgN/A
7:00 AM79 °FScattered clouds.No wind84%29.89 "HgN/A
6:00 AM72 °FPassing clouds.No wind94%29.89 "HgN/A
5:00 AM73 °FPassing clouds.No wind94%29.86 "HgN/A
4:00 AM73 °FPassing clouds.No wind94%29.86 "HgN/A
3:00 AM73 °FPassing clouds.No wind94%29.86 "HgN/A
12:00 AM75 °FPassing clouds.6 mph94%29.92 "HgN/A
11:00 PM
Sep 17
75 °FPassing clouds.3 mph94%29.92 "HgN/A
10:00 PM77 °FPassing clouds.3 mph89%29.92 "HgN/A
9:00 PM79 °FPassing clouds.7 mph84%29.92 "HgN/A
8:00 PM81 °FPassing clouds.9 mph84%29.92 "HgN/A
7:00 PM81 °FPassing clouds.7 mph79%29.89 "HgN/A
6:00 PM82 °FPartly cloudy.7 mph74%29.89 "HgN/A
5:00 PM84 °FScattered clouds.7 mph70%29.86 "HgN/A
4:00 PM88 °FScattered clouds.6 mph66%29.83 "HgN/A
3:00 PM88 °FScattered clouds.6 mph66%29.86 "HgN/A
2:00 PM90 °FScattered clouds.6 mph67%29.86 "HgN/A
1:00 PM86 °FScattered clouds.7 mph70%29.89 "HgN/A
12:00 PM88 °FScattered clouds.7 mph66%29.92 "HgN/A
Weather by CustomWeather, © 2014

See weather overviewHow to use our weather pages